TRANSIT 16 1 02807U 67048A 12034.24755436 .00000074 00000-0 10000-3 0 7058 2 02807 89.6840 172.1005 0020594 348.1544 11.9121 13.49819973200268 TRANSIT 17 1 02965U 67092A 12033.97124044 .00000078 00000-0 10000-3 0 9591 2 02965 89.2412 49.2722 0047921 161.5262 198.7647 13.52534655186985 TRANSIT 18 1 03133U 68012A 12033.69240862 .00000076 00000-0 10000-3 0 586 2 03133 89.9620 283.7720 0076665 65.7304 295.1836 13.50639129162204 NNSS 19 1 04507U 70067A 12034.24204893 .00000090 00000-0 11416-3 0 7520 2 04507 89.8388 297.1341 0171800 184.0774 175.8989 13.50263246 39367 NNSS O-20 1 06909U 73081A 12033.92662411 .00000165 00000-0 15910-3 0 2290 2 06909 89.8594 344.1957 0159750 114.2995 247.4942 13.69917825110588 TRANSAT 1 10457U 77106A 12034.05546917 .00000072 00000-0 10000-3 0 3206 2 10457 89.7200 219.8732 0027182 25.2938 334.9535 13.48336305685441 NOVA I 1 12458U 81044A 12034.19266456 .00000050 00000-0 10000-3 0 5261 2 12458 90.0416 122.0418 0014345 24.3665 335.8178 13.22768649482886 NOVA 3 1 15362U 84110A 12034.09972513 .00000050 00000-0 10000-3 0 3934 2 15362 90.0023 50.1112 0030065 236.4346 123.3915 13.22543351318112 OSCAR 30 1 15935U 85066A 12034.15675752 .00000067 00000-0 10869-3 0 9323 2 15935 90.0791 29.2862 0168845 317.9313 40.8963 13.35348440288945 OSCAR 24 1 15936U 85066B 12034.48403738 -.00000034 00000-0 -75234-4 0 4906 2 15936 90.0690 25.3647 0168975 320.2909 38.5978 13.35239329291101 POLAR BEAR 1 17070U 86088A 12034.54565213 .00000071 00000-0 63008-4 0 6172 2 17070 89.5205 62.1085 0036660 253.8921 105.8206 13.74434134264681 OSCAR 27 1 18361U 87080A 12033.71048764 .00000067 00000-0 10000-3 0 9344 2 18361 90.3641 266.9013 0104884 313.7403 45.5095 13.44160995195653 OSCAR 29 1 18362U 87080B 12033.95514996 .00000067 00000-0 10000-3 0 1944 2 18362 90.3629 267.0733 0107014 325.8392 33.5900 13.43779520195426 OSCAR 23 1 19070U 88033A 12034.05877512 .00000057 00000-0 10000-3 0 2858 2 19070 90.2848 210.1318 0188650 210.1014 148.9198 13.27183197151282 OSCAR 32 1 19071U 88033B 12033.90335822 .00000057 00000-0 10000-3 0 7748 2 19071 90.2878 210.2115 0187187 201.7177 157.5957 13.27378791151445 NOVA 11 1 19223U 88052A 12033.70131002 .00000050 00000-0 10000-3 0 9420 2 19223 89.9996 91.6460 0028818 281.8423 77.9480 13.22472592140591 OSCAR 25 1 19419U 88074A 12033.92219199 .00000066 00000-0 10000-3 0 1877 2 19419 89.9448 25.0039 0095020 279.3040 79.7375 13.41895276147677 OSCAR 31 1 19420U 88074B 12033.98917037 .00000066 00000-0 10000-3 0 8474 2 19420 89.9442 24.9488 0093001 273.4757 85.5754 13.41937579147787